Temp
-6 -7 -7 -7 -8 -8 -8 -8 -8 -8 -8 -8 -8 -7 -7 -7 -7 -7 -6 -6 -6 -6 -5 -5 -5 -5 -5 -5 -5 -5 -5 -5 -5 -5 -5 -5 -5 -5 -5 -5 -6 -6 -6 -6 -6 -6 -6 -7 -7
-6 -6 -7 -7 -8 -8 -8 -8 -8 -8 -8 -8 -7 -7 -7 -6 -6 -6 -7 -6 -6 -6 -6 -5 -5 -5 -5 -5 -5 -5 -4 -5 -5 -5 -5 -5 -6 -6 -6 -5 -5 -6 -6 -6 -6 -6 -6 -7 -8
-5 -6 -6 -7 -7 -7 -7 -8 -8 -8 -8 -7 -7 -6 -6 -6 -7 -6 -6 -6 -5 -5 -5 -5 -5 -5 -5 -5 -5 -5 -5 -5 -5 -5 -5 -5 -5 -6 -5 -5 -6 -6 -6 -5 -6 -6 -6 -7 -7
-6 -6 -6 -6 -6 -7 -7 -7 -7 -7 -7 -7 -7 -7 -7 -7 -7 -6 -6 -6 -5 -5 -5 -5 -5 -5 -5 -5 -5 -5 -5 -5 -5 -5 -5 -5 -5 -5 -5 -6 -6 -6 -6 -6 -6 -6 -7 -7 -7
-6 -6 -6 -6 -6 -6 -6 -7 -7 -7 -7 -7 -7 -7 -6 -7 -6 -6 -6 -5 -5 -6 -5 -5 -5 -5 -5 -5 -5 -5 -5 -5 -5 -5 -5 -5 -5 -5 -5 -6 -6 -6 -6 -6 -6 -6 -7 -6 -7
-5 -6 -6 -5 -6 -6 -6 -6 -6 -7 -7 -7 -6 -6 -6 -6 -7 -7 -6 -6 -6 -6 -5 -5 -5 -5 -5 -5 -5 -5 -5 -6 -6 -6 -5 -5 -5 -5 -6 -6 -6 -6 -6 -6 -6 -6 -6 -6 -7
-5 -5 -5 -6 -5 -6 -6 -6 -6 -7 -7 -7 -6 -6 -6 -6 -6 -6 -6 -6 -6 -6 -5 -5 -5 -5 -5 -6 -6 -6 -6 -6 -6 -6 -6 -5 -5 -6 -6 -6 -6 -6 -6 -7 -7 -6 -6 -6 -6
-5 -5 -4 -5 -5 -5 -5 -5 -5 -6 -6 -6 -6 -5 -5 -6 -6 -6 -6 -6 -6 -5 -5 -5 -5 -5 -6 -6 -6 -6 -6 -6 -6 -6 -5 -5 -5 -5 -6 -6 -6 -6 -6 -6 -6 -6 -6 -6 -6
-4 -4 -5 -5 -5 -5 -5 -5 -5 -5 -5 -5 -5 -5 -5 -5 -5 -6 -6 -6 -5 -5 -5 -5 -5 -6 -6 -6 -6 -6 -6 -6 -6 -6 -5 -6 -6 -6 -6 -6 -6 -7 -6 -6 -6 -6 -6 -6 -6
-5 -4 -5 -4 -5 -4 -5 -5 -5 -5 -5 -5 -5 -5 -4 -4 -4 -5 -5 -5 -5 -5 -5 -5 -5 -5 -5 -6 -6 -6 -6 -6 -6 -6 -6 -6 -6 -6 -6 -6 -6 -7 -7 -6 -6 -6 -6 -6 -6
-4 -5 -4 -4 -4 -3 -4 -5 -5 -5 -5 -4 -4 -4 -4 -4 -4 -5 -5 -4 -5 -5 -5 -5 -5 -5 -5 -6 -6 -6 -6 -6 -6 -6 -6 -6 -6 -6 -6 -6 -6 -7 -7 -7 -7 -6 -6 -6 -6
-4 -5 -5 -3 -4 -4 -4 -4 -5 -5 -4 -4 -4 -4 -4 -4 -4 -4 -4 -4 -4 -4 -4 -5 -5 -5 -5 -5 -6 -6 -6 -5 -5 -6 -6 -5 -5 -6 -6 -7 -6 -6 -6 -7 -7 -7 -7 -6 -6
-4 -5 -5 -5 -4 -5 -4 -5 -5 -5 -4 -5 -5 -4 -3 -4 -4 -4 -4 -4 -4 -5 -4 -4 -4 -5 -5 -5 -5 -5 -5 -5 -6 -6 -6 -6 -5 -5 -6 -6 -6 -7 -6 -6 -6 -6 -6 -6 -6
-5 -4 -4 -5 -5 -5 -4 -4 -5 -5 -5 -5 -5 -5 -4 -4 -4 -4 -4 -4 -5 -4 -5 -5 -5 -5 -5 -5 -5 -5 -5 -5 -5 -5 -6 -6 -5 -5 -5 -6 -6 -6 -6 -6 -7 -7 -6 -6 -6
-4 -4 -5 -5 -5 -5 -5 -5 -5 -6 -5 -4 -5 -5 -5 -4 -4 -4 -4 -4 -4 -4 -4 -5 -4 -4 -5 -5 -5 -6 -5 -5 -5 -5 -5 -5 -6 -5 -5 -6 -6 -6 -6 -6 -6 -6 -6 -7 -7
-4 -4 -5 -5 -4 -4 -5 -6 -6 -5 -6 -5 -4 -4 -5 -5 -4 -4 -5 -5 -5 -5 -5 -5 -5 -5 -5 -5 -5 -5 -5 -6 -6 -6 -6 -6 -6 -6 -6 -6 -6 -6 -6 -7 -7 -7 -7 -7 -7
-4 -4 -4 -4 -4 -4 -5 -6 -5 -5 -5 -5 -5 -5 -5 -5 -6 -6 -6 -5 -5 -5 -5 -5 -4 -5 -5 -5 -5 -5 -5 -5 -6 -6 -6 -6 -6 -6 -6 -6 -6 -7 -7 -7 -7 -7 -7 -7 -7
-4 -4 -4 -4 -4 -4 -5 -5 -5 -5 -5 -6 -6 -6 -6 -5 -5 -6 -6 -6 -5 -5 -5 -5 -5 -5 -5 -6 -6 -6 -6 -6 -6 -6 -6 -6 -6 -6 -6 -6 -6 -7 -8 -8 -7 -7 -7 -7 -7
-5 -4 -4 -4 -5 -5 -5 -5 -5 -5 -5 -5 -6 -5 -5 -5 -5 -5 -5 -5 -5 -5 -5 -5 -6 -6 -5 -6 -6 -6 -6 -6 -6 -6 -6 -6 -7 -7 -7 -7 -7 -7 -7 -7 -8 -7 -7 -7 -7
-5 -5 -5 -5 -5 -5 -5 -5 -6 -6 -6 -6 -6 -5 -5 -5 -5 -4 -4 -5 -5 -5 -5 -5 -4 -5 -5 -5 -5 -6 -7 -7 -7 -6 -6 -7 -7 -7 -8 -8 -7 -7 -7 -7 -7 -7 -7 -7 -7
-5 -6 -6 -5 -5 -5 -5 -6 -6 -6 -6 -5 -5 -5 -5 -5 -5 -5 -5 -5 -5 -5 -5 -5 -5 -4 -4 -4 -5 -5 -6 -6 -7 -7 -7 -7 -7 -7 -7 -8 -8 -7 -7 -7 -7 -7 -7 -7 -7
-4 -6 -5 -5 -5 -5 -5 -5 -5 -6 -6 -6 -5 -4 -4 -4 -5 -5 -5 -5 -5 -5 -5 -5 -5 -5 -5 -4 -4 -5 -6 -6 -6 -7 -7 -7 -8 -8 -8 -8 -8 -8 -8 -7 -7 -7 -7 -7 -7
-6 -6 -5 -5 -4 -5 -5 -5 -6 -5 -5 -6 -5 -4 -4 -4 -4 -4 -4 -5 -4 -4 -4 -5 -5 -5 -5 -5 -5 -5 -5 -6 -7 -7 -8 -8 -8 -8 -9 -7 -8 -8 -8 -7 -7 -7 -7 -7 -7
-6 -6 -6 -5 -5 -5 -5 -5 -5 -5 -4 -5 -5 -5 -4 -5 -5 -5 -5 -5 -5 -4 -5 -5 -5 -5 -5 -5 -5 -5 -6 -6 -6 -7 -7 -8 -8 -9 -8 -8 -8 -8 -8 -8 -7 -7 -7 -7 -7
-6 -6 -6 -6 -5 -5 -5 -5 -5 -4 -4 -4 -5 -5 -5 -5 -6 -5 -5 -5 -4 -4 -4 -4 -5 -5 -5 -5 -5 -5 -5 -5 -6 -6 -7 -8 -8 -8 -8 -8 -8 -7 -7 -7 -7 -7 -7 -7 -7
-6 -6 -7 -6 -6 -6 -5 -5 -5 -4 -4 -4 -4 -5 -5 -5 -5 -5 -5 -4 -4 -4 -4 -4 -4 -4 -5 -5 -5 -5 -5 -5 -6 -6 -7 -7 -8 -9 -8 -8 -9 -8 -7 -7 -7 -7 -7 -7 -7
-6 -6 -6 -7 -7 -6 -5 -5 -5 -5 -5 -4 -4 -4 -4 -5 -5 -5 -4 -3 -4 -4 -4 -5 -5 -5 -5 -5 -5 -5 -5 -6 -6 -6 -7 -7 -8 -9 -9 -8 -7 -7 -8 -7 -7 -7 -7 -6 -7
-6 -6 -6 -6 -5 -6 -6 -6 -5 -5 -5 -4 -4 -4 -5 -5 -5 -5 -4 -4 -3 -4 -4 -5 -4 -4 -5 -5 -5 -5 -4 -5 -6 -6 -7 -7 -8 -9 -9 -8 -8 -8 -8 -8 -8 -7 -8 -7 -7
-6 -5 -5 -5 -5 -6 -6 -6 -6 -5 -5 -5 -5 -5 -6 -5 -5 -5 -5 -4 -4 -4 -5 -5 -5 -5 -4 -5 -5 -5 -5 -6 -6 -7 -7 -7 -8 -10 -10 -9 -8 -8 -8 -8 -8 -8 -8 -7 -8
-6 -6 -6 -6 -6 -5 -5 -5 -7 -6 -6 -6 -6 -6 -5 -5 -6 -6 -6 -5 -5 -5 -5 -5 -5 -5 -5 -5 -5 -5 -5 -6 -6 -7 -7 -8 -9 -10 -10 -9 -9 -8 -8 -9 -9 -9 -8 -8 -8
Height
5896 5896 5894 5895 5895 5888 5887 5889 5886 5887 5890 5892 5893 5894 5896 5897 5898 5901 5901 5902 5905 5906 5906 5906 5906 5906 5907 5909 5909 5909 5910 5910 5910 5911 5913 5914 5914 5912 5911 5911 5911 5911 5911 5910 5911 5910 5911 5910 5910
5898 5898 5896 5896 5894 5889 5888 5888 5889 5890 5890 5892 5894 5895 5896 5898 5898 5900 5902 5904 5904 5905 5907 5908 5908 5908 5909 5910 5910 5910 5911 5912 5913 5913 5914 5916 5916 5914 5913 5913 5913 5914 5913 5913 5913 5913 5913 5912 5911
5901 5900 5899 5898 5894 5892 5890 5890 5891 5891 5891 5893 5895 5897 5899 5901 5901 5902 5903 5905 5905 5906 5908 5909 5909 5909 5910 5910 5911 5911 5913 5914 5915 5915 5916 5918 5917 5916 5915 5915 5916 5915 5915 5915 5915 5915 5915 5914 5914
5905 5904 5902 5899 5897 5895 5894 5894 5894 5894 5895 5896 5898 5900 5901 5902 5903 5904 5905 5906 5906 5906 5909 5910 5911 5911 5912 5913 5913 5914 5915 5915 5916 5916 5918 5920 5919 5918 5917 5918 5918 5917 5917 5917 5917 5917 5917 5917 5917
5908 5907 5905 5901 5901 5899 5899 5899 5898 5897 5900 5900 5901 5901 5903 5904 5905 5906 5907 5908 5908 5909 5911 5912 5912 5913 5914 5914 5915 5915 5916 5917 5918 5918 5921 5921 5920 5919 5919 5919 5919 5919 5919 5919 5918 5919 5919 5919 5918
5910 5909 5908 5906 5904 5902 5903 5902 5901 5902 5903 5904 5905 5906 5906 5906 5907 5908 5909 5910 5911 5911 5913 5913 5913 5914 5915 5915 5916 5916 5918 5919 5920 5920 5922 5922 5921 5921 5921 5921 5921 5921 5921 5920 5919 5920 5920 5920 5920
5913 5912 5910 5908 5907 5906 5906 5905 5905 5906 5906 5907 5907 5908 5909 5909 5909 5911 5912 5913 5913 5914 5915 5915 5915 5915 5915 5916 5916 5917 5919 5919 5920 5921 5922 5922 5922 5923 5923 5923 5922 5923 5923 5922 5922 5922 5922 5922 5922
5912 5914 5914 5912 5910 5909 5908 5909 5909 5910 5910 5908 5909 5911 5912 5912 5913 5913 5914 5915 5916 5917 5917 5917 5916 5916 5916 5916 5916 5918 5919 5920 5921 5922 5923 5923 5923 5924 5924 5924 5925 5925 5925 5924 5924 5923 5922 5921 5921
5914 5915 5915 5914 5912 5910 5910 5912 5913 5914 5914 5913 5914 5914 5914 5915 5917 5917 5917 5917 5916 5917 5918 5918 5917 5917 5917 5918 5918 5919 5920 5921 5922 5923 5923 5924 5925 5926 5926 5925 5926 5927 5926 5925 5925 5924 5924 5922 5921
5917 5917 5916 5916 5915 5914 5912 5914 5913 5915 5916 5915 5915 5916 5917 5918 5919 5919 5918 5918 5917 5918 5918 5918 5918 5918 5918 5919 5919 5919 5921 5922 5923 5923 5924 5924 5926 5926 5927 5926 5927 5927 5927 5926 5925 5925 5925 5923 5923
5918 5917 5918 5918 5919 5917 5914 5912 5915 5916 5917 5917 5917 5917 5917 5918 5918 5919 5919 5919 5920 5920 5919 5919 5918 5919 5920 5921 5920 5920 5920 5922 5924 5925 5925 5925 5925 5927 5928 5927 5926 5927 5927 5927 5926 5926 5925 5924 5923
5921 5920 5920 5919 5921 5921 5917 5916 5916 5917 5918 5918 5918 5918 5918 5917 5916 5918 5919 5920 5921 5921 5921 5920 5920 5920 5921 5921 5921 5921 5921 5922 5923 5924 5924 5925 5926 5927 5928 5928 5927 5927 5928 5928 5927 5926 5926 5926 5925
5921 5922 5920 5922 5923 5924 5923 5919 5920 5919 5919 5919 5919 5918 5918 5918 5917 5918 5919 5920 5921 5922 5922 5922 5921 5921 5920 5921 5922 5922 5922 5922 5923 5923 5923 5923 5924 5926 5927 5927 5927 5926 5926 5926 5927 5925 5925 5925 5925
5921 5921 5923 5924 5925 5925 5923 5922 5920 5920 5920 5919 5920 5919 5920 5919 5919 5920 5921 5921 5921 5921 5921 5921 5921 5921 5920 5920 5921 5922 5922 5922 5922 5922 5922 5922 5922 5924 5925 5926 5926 5925 5925 5925 5925 5924 5924 5923 5924
5922 5926 5926 5924 5924 5923 5922 5921 5920 5920 5922 5921 5920 5920 5921 5921 5920 5918 5920 5920 5920 5920 5920 5920 5920 5920 5920 5920 5920 5920 5920 5920 5921 5920 5920 5921 5921 5921 5922 5922 5924 5924 5924 5923 5923 5924 5922 5921 5922
5923 5926 5926 5925 5923 5924 5921 5921 5921 5922 5922 5923 5922 5921 5921 5921 5920 5920 5919 5919 5919 5919 5918 5919 5919 5919 5918 5918 5918 5918 5918 5918 5917 5918 5918 5917 5917 5919 5920 5919 5920 5921 5920 5921 5922 5922 5921 5920 5920
5926 5926 5927 5926 5925 5924 5924 5924 5922 5922 5924 5924 5924 5923 5922 5921 5920 5920 5920 5920 5920 5919 5919 5918 5917 5917 5917 5917 5917 5917 5917 5916 5915 5915 5914 5914 5914 5914 5915 5916 5916 5917 5917 5917 5918 5919 5919 5918 5918
5926 5928 5927 5927 5926 5926 5926 5925 5924 5925 5925 5926 5924 5923 5922 5922 5921 5921 5921 5921 5921 5920 5919 5919 5918 5917 5916 5915 5914 5914 5915 5916 5914 5913 5912 5911 5910 5910 5911 5912 5912 5912 5911 5912 5913 5914 5915 5915 5915
5928 5928 5928 5927 5926 5926 5927 5927 5926 5926 5925 5925 5925 5923 5924 5923 5922 5921 5922 5921 5921 5920 5919 5918 5916 5916 5915 5914 5911 5909 5910 5911 5913 5912 5911 5909 5906 5905 5904 5905 5906 5906 5906 5906 5907 5908 5908 5910 5910
5930 5931 5932 5931 5930 5929 5928 5929 5926 5928 5928 5927 5925 5925 5926 5925 5925 5923 5923 5921 5921 5921 5920 5918 5916 5914 5913 5912 5910 5909 5908 5907 5907 5907 5907 5905 5903 5900 5898 5899 5899 5900 5901 5902 5902 5901 5901 5903 5904
5931 5932 5932 5932 5932 5931 5930 5929 5930 5931 5931 5930 5930 5928 5927 5927 5926 5924 5923 5921 5919 5919 5918 5918 5917 5914 5912 5911 5909 5908 5907 5905 5903 5901 5899 5898 5897 5896 5895 5892 5892 5892 5893 5895 5895 5895 5894 5895 5895
5932 5933 5933 5933 5934 5934 5933 5933 5931 5931 5931 5931 5930 5929 5927 5927 5926 5924 5922 5921 5919 5917 5916 5914 5913 5912 5910 5908 5906 5904 5903 5901 5900 5899 5895 5891 5889 5888 5886 5886 5885 5885 5885 5886 5887 5888 5887 5887 5888
5933 5934 5934 5934 5934 5934 5934 5935 5934 5933 5933 5932 5931 5929 5927 5926 5925 5924 5922 5920 5918 5917 5915 5914 5911 5908 5906 5903 5901 5898 5896 5894 5892 5890 5889 5885 5880 5879 5878 5877 5876 5875 5876 5876 5876 5876 5877 5877 5877
5933 5933 5934 5934 5934 5934 5934 5935 5934 5933 5933 5932 5931 5930 5927 5925 5925 5924 5921 5919 5917 5916 5914 5911 5909 5906 5902 5898 5895 5892 5889 5886 5883 5880 5878 5876 5872 5868 5867 5865 5863 5864 5865 5867 5866 5865 5865 5865 5867
5934 5933 5932 5934 5933 5934 5933 5934 5933 5932 5932 5931 5930 5930 5927 5924 5923 5922 5919 5916 5914 5912 5909 5907 5904 5901 5898 5893 5889 5884 5879 5876 5873 5870 5867 5864 5861 5858 5858 5852 5852 5854 5854 5856 5854 5853 5854 5855 5858
5933 5932 5932 5932 5932 5932 5931 5931 5932 5931 5930 5929 5929 5928 5927 5925 5923 5921 5917 5913 5910 5905 5902 5900 5897 5895 5890 5885 5881 5876 5871 5867 5863 5860 5856 5852 5849 5847 5845 5844 5847 5845 5845 5845 5846 5845 5845 5838 5847
5931 5931 5930 5929 5929 5928 5929 5928 5928 5928 5926 5925 5925 5924 5922 5920 5918 5914 5910 5907 5903 5899 5896 5894 5891 5888 5884 5878 5873 5868 5863 5857 5853 5850 5845 5840 5838 5835 5833 5834 5834 5834 5835 5834 5836 5831 5832 5824 5836
5930 5930 5930 5927 5925 5924 5924 5923 5923 5922 5922 5921 5919 5918 5916 5914 5911 5906 5903 5899 5897 5894 5891 5888 5885 5881 5877 5872 5866 5861 5855 5849 5845 5840 5834 5829 5824 5820 5819 5820 5819 5817 5822 5822 5821 5822 5823 5825 5828
5928 5927 5926 5926 5924 5921 5919 5921 5920 5919 5917 5916 5914 5913 5911 5908 5904 5900 5896 5893 5890 5888 5885 5881 5877 5873 5869 5864 5858 5853 5849 5843 5837 5830 5824 5817 5811 5807 5806 5806 5804 5805 5805 5811 5812 5813 5815 5815 5815
5924 5923 5923 5921 5921 5917 5914 5916 5914 5914 5913 5911 5910 5907 5904 5901 5897 5893 5889 5885 5882 5879 5875 5871 5867 5863 5859 5853 5848 5842 5837 5831 5826 5820 5815 5809 5803 5800 5796 5792 5790 5788 5794 5799 5802 5804 5806 5809 5808
Wind_Speed
18 19 14 17 11 19 14 10 12 11 11 10 9 10 11 9 8 6 4 5 7 8 6 4 5 5 6 8 10 13 14 12 12 13 11 11 12 13 14 18 18 17 19 20 20 20 17 15 17
10 16 18 17 19 16 18 14 12 11 14 12 11 8 11 11 9 5 3 3 7 7 5 4 6 6 8 9 11 14 15 13 14 12 13 12 12 13 15 16 20 20 19 20 18 18 17 16 16
13 20 23 19 19 18 17 14 14 18 15 14 13 12 12 10 6 5 4 4 7 7 5 5 7 8 8 9 12 14 14 14 14 13 13 13 15 15 16 13 17 19 20 18 15 16 18 22 19
16 26 23 26 21 21 16 13 15 17 19 18 13 11 11 8 5 4 4 5 5 6 4 5 7 8 8 9 12 12 14 13 12 14 14 16 16 16 16 14 15 17 18 19 18 16 17 20 19
12 11 21 22 20 21 17 11 14 13 14 13 14 16 14 11 9 6 5 7 6 4 3 4 6 6 8 9 11 12 12 12 12 14 15 16 18 19 17 17 15 15 17 18 16 16 16 15 17
12 13 18 21 20 21 19 14 13 12 10 10 13 12 14 14 10 8 8 7 1 3 2 3 5 6 6 7 10 12 12 11 11 12 13 14 17 17 16 15 14 13 14 14 14 15 16 17 19
7 14 19 15 17 20 20 18 12 8 10 8 8 9 10 10 8 5 5 4 2 1 2 4 4 5 5 7 9 10 10 10 11 10 11 12 14 15 14 13 12 13 12 11 13 13 15 17 18
2 3 19 18 15 19 22 20 17 8 7 8 7 4 6 7 6 4 4 4 3 2 2 4 5 5 5 7 9 9 9 9 9 9 10 11 12 13 11 12 11 9 9 8 8 9 11 18 19
5 6 10 16 15 16 19 19 17 14 9 3 2 2 2 3 5 3 5 7 7 4 3 3 5 6 6 5 7 8 9 8 7 6 7 9 9 10 10 9 10 7 7 8 8 8 8 9 17
3 6 11 12 13 17 19 18 17 13 11 9 5 1 2 2 3 3 5 6 6 6 5 5 6 6 6 6 6 6 7 6 6 5 6 9 10 8 10 9 8 7 5 5 8 9 8 8 12
5 7 6 9 7 14 18 19 15 10 10 8 6 4 3 3 5 3 2 6 6 6 7 7 7 5 4 4 5 5 5 4 4 3 3 6 7 8 9 10 8 3 5 3 5 6 9 8 13
5 7 0 18 14 12 17 17 15 11 11 8 7 4 4 4 7 6 5 4 6 6 5 4 4 3 2 1 2 1 1 2 2 1 2 4 6 6 5 6 8 2 2 2 3 6 7 8 9
1 3 10 5 9 7 8 11 14 12 9 8 5 4 4 6 7 7 6 5 4 4 3 2 3 2 1 1 2 3 3 3 3 3 4 6 6 5 3 2 4 3 4 3 2 7 6 8 8
2 5 8 2 10 12 12 15 12 13 10 9 9 5 1 4 6 7 8 8 5 3 2 1 2 1 2 2 3 5 7 8 9 9 8 9 11 11 9 5 3 2 2 3 4 5 4 5 7
4 6 3 5 7 3 7 11 9 8 8 7 7 9 7 4 4 5 5 5 3 3 4 2 0 1 2 2 4 6 8 9 11 11 12 14 16 15 13 10 7 7 5 7 7 8 7 6 7
6 9 7 9 12 7 12 9 7 4 6 6 9 13 9 8 9 7 6 6 4 4 4 3 2 2 3 4 5 8 10 11 12 13 14 15 17 18 16 14 12 10 10 8 11 12 9 9 10
10 12 13 14 12 11 12 8 3 9 8 7 7 8 12 11 11 9 8 7 6 5 4 3 3 3 4 4 7 8 12 12 12 13 15 17 17 19 19 17 16 13 15 13 13 14 15 15 14
9 12 10 11 10 8 9 13 15 10 5 6 4 3 4 8 9 8 5 3 2 4 4 5 5 4 5 6 9 11 10 10 12 14 16 18 18 19 20 19 19 18 18 18 17 20 19 20 19
10 10 11 9 10 10 12 13 15 13 12 9 9 8 9 9 8 9 6 4 4 3 5 8 6 7 8 8 14 11 13 12 13 15 17 19 20 20 21 21 20 21 22 22 22 23 24 23 22
5 6 9 8 8 13 13 15 21 18 16 14 11 10 11 11 10 10 8 8 5 5 7 6 9 9 7 7 8 12 12 17 18 17 18 19 21 21 22 22 23 24 25 26 27 28 26 24 25
2 5 8 7 7 11 12 18 16 13 12 9 7 7 9 10 8 7 8 10 11 13 12 10 11 13 13 12 14 15 13 14 20 23 22 19 18 19 24 27 28 29 30 30 30 31 30 30 30
4 7 9 9 7 7 7 12 11 12 7 5 2 5 9 9 8 5 7 7 8 10 11 14 15 14 13 13 18 20 20 20 24 26 26 25 25 27 32 29 31 31 32 34 33 32 33 35 34
8 9 7 5 6 7 7 8 6 6 9 5 3 1 5 5 4 1 2 3 5 8 10 13 15 19 19 20 21 23 25 28 30 29 30 32 31 30 27 27 31 30 33 34 34 33 35 35 31
6 7 4 1 1 8 5 9 5 8 4 6 3 4 0 2 3 4 6 8 10 10 12 14 17 21 23 25 28 29 29 30 31 33 33 33 36 38 37 33 38 31 31 33 34 35 30 33 34
10 5 3 7 6 6 9 6 8 12 2 5 4 6 4 3 6 10 10 11 12 12 14 16 19 22 25 27 30 32 32 32 31 32 34 37 40 43 46 45 41 36 25 30 33 35 40 36 35
12 12 5 10 11 12 12 10 7 8 5 4 1 6 10 8 10 14 13 15 16 18 21 23 25 26 29 31 33 35 35 34 36 37 38 40 43 47 48 46 45 40 33 30 38 35 38 47 38
11 12 10 12 17 17 15 14 11 12 12 12 9 5 6 10 13 15 16 16 18 21 25 27 28 29 31 34 36 37 38 35 35 35 39 44 46 49 50 48 46 45 48 39 35 39 45 44 41
14 15 14 16 20 22 21 24 21 20 17 17 18 17 21 21 21 22 23 23 22 24 28 30 30 31 33 36 37 38 39 38 34 32 33 37 46 51 49 42 49 39 49 37 35 42 33 42 44
18 18 17 17 19 22 22 20 22 22 22 23 23 24 26 25 26 28 30 30 30 30 31 32 33 34 35 37 41 40 40 38 34 32 31 34 40 44 43 46 43 46 41 42 35 29 26 28 36
17 20 20 23 25 26 24 18 20 18 21 26 27 30 30 29 31 32 34 36 37 37 36 37 37 38 38 40 43 45 44 42 36 35 33 30 31 28 36 45 51 50 46 40 28 26 31 28 21
Wind_Direction
81 62 66 54 29 35 42 52 72 82 112 118 133 129 157 145 136 123 133 121 108 101 85 75 68 70 91 113 94 86 80 75 83 80 71 65 53 48 51 58 55 58 57 58 64 72 79 76 85
67 49 49 51 45 28 40 70 90 98 131 145 148 152 156 152 152 155 158 118 100 87 76 67 63 73 101 107 84 77 73 81 84 77 70 63 53 51 51 54 54 58 61 60 63 68 72 67 87
68 61 59 60 50 38 45 61 83 111 134 153 155 153 148 157 171 177 177 133 94 89 65 60 66 79 88 88 82 78 75 77 78 73 73 58 61 60 53 54 56 57 64 66 65 71 65 62 90
61 61 63 56 49 48 56 79 89 107 119 130 147 152 163 170 186 192 185 110 95 76 61 66 77 83 98 88 84 88 83 81 75 64 63 68 62 59 58 58 60 55 57 60 54 55 59 64 68
62 60 61 63 62 55 61 93 105 111 111 122 127 128 130 128 122 132 153 152 103 62 46 83 90 96 106 109 106 100 93 84 71 65 65 69 64 67 61 65 66 57 56 55 56 56 56 63 58
48 67 77 64 75 74 68 75 100 102 95 105 113 120 129 126 114 105 103 135 129 70 63 95 91 91 102 109 105 101 99 90 74 66 68 67 65 66 62 65 63 61 62 55 55 56 53 53 49
95 57 76 82 78 88 81 78 83 109 114 102 99 117 115 113 109 113 117 117 117 118 107 91 86 83 88 99 105 101 98 90 79 65 60 56 56 59 61 64 64 63 61 54 43 44 47 41 47
347 103 83 72 78 85 89 84 83 102 104 119 126 98 105 109 112 116 122 129 119 139 113 93 86 69 82 104 109 111 103 88 80 63 55 56 51 55 64 52 58 63 61 48 44 43 40 33 18
63 62 98 84 90 92 93 92 88 87 90 94 81 57 96 87 96 119 130 132 110 99 69 74 84 77 76 91 107 106 101 96 84 64 46 46 47 46 41 38 49 54 55 48 42 38 42 24 12
49 100 83 79 91 98 93 88 92 92 97 103 108 239 300 7 46 67 107 91 104 116 103 97 85 79 89 101 103 109 101 94 97 86 58 42 42 44 38 20 29 35 46 40 32 23 22 16 15
61 39 54 50 66 80 96 93 82 94 106 106 118 125 132 94 86 81 67 103 101 92 97 109 111 110 101 107 114 112 110 105 97 83 31 28 32 43 51 40 17 46 37 24 9 15 19 10 15
74 61 97 65 60 57 79 88 93 101 106 122 134 158 149 133 115 109 125 117 114 109 107 88 80 91 112 141 150 135 148 146 135 186 311 341 355 21 41 43 33 86 31 58 8 355 7 8 14
338 16 333 23 77 54 32 57 72 80 92 106 132 189 150 128 112 115 139 132 119 101 83 67 63 55 52 330 318 303 295 283 261 253 280 300 311 323 349 36 14 37 195 175 299 313 334 356 2
321 323 11 142 50 60 57 77 87 74 64 103 110 121 170 137 124 108 119 132 144 130 92 26 7 18 13 356 320 310 299 293 289 287 285 287 296 305 311 308 307 305 252 253 261 254 285 341 339
224 81 60 20 342 312 359 48 89 68 57 85 107 111 106 113 107 117 110 107 124 151 163 185 234 300 289 288 283 276 278 287 290 288 288 293 293 293 293 292 291 288 281 257 239 238 273 303 306
116 145 89 86 87 68 68 85 78 99 107 111 119 113 94 85 85 81 62 67 52 17 352 1 7 334 300 283 274 271 273 276 277 279 284 284 288 290 289 285 283 279 279 268 257 248 247 277 292
98 113 109 108 107 87 87 133 183 129 125 121 92 89 117 103 76 74 82 79 72 61 39 28 40 41 33 3 331 307 288 276 278 285 287 284 282 283 281 277 275 268 267 263 265 258 252 257 262
103 118 130 128 108 102 95 99 116 88 128 89 79 87 121 107 119 123 108 98 63 341 303 303 315 328 326 330 324 311 306 306 301 296 292 290 287 286 283 279 272 264 262 259 253 259 257 259 261
106 83 79 96 109 99 96 98 109 74 96 95 99 89 81 85 99 114 125 176 222 346 3 356 2 312 306 318 334 308 306 304 309 301 293 287 283 281 282 282 276 269 265 263 258 254 257 263 260
108 74 89 107 107 122 105 95 98 93 91 88 87 81 76 66 70 79 72 72 41 15 11 15 7 354 347 337 359 339 314 306 314 305 286 274 275 277 277 275 271 268 268 265 263 260 259 256 254
230 135 122 127 142 136 125 116 88 102 108 104 124 120 112 85 59 55 42 31 23 20 16 16 353 355 346 327 325 317 317 290 294 300 297 289 293 283 284 275 272 268 264 257 254 258 258 256 260
267 173 162 132 132 153 129 137 130 100 105 63 107 128 111 101 89 72 44 26 5 350 350 349 346 351 342 325 309 311 308 296 302 296 289 292 292 288 296 276 268 268 266 268 265 260 257 256 258
160 156 156 195 226 181 166 164 181 148 131 117 246 255 88 76 80 42 26 354 327 338 343 345 346 339 336 328 325 322 312 302 299 294 288 291 289 287 290 279 277 279 261 263 267 266 261 255 265
135 151 149 141 240 185 193 198 209 205 152 131 172 233 198 17 357 317 326 327 323 332 338 342 340 334 331 330 326 325 315 307 298 293 289 283 283 284 281 271 269 263 267 259 264 266 263 258 264
158 177 293 283 301 256 250 237 243 219 299 125 121 193 219 246 286 290 293 302 311 312 318 329 332 332 330 326 330 327 320 314 303 296 291 283 273 276 272 278 261 267 264 278 263 265 258 259 256
213 243 294 261 271 275 276 287 268 270 294 326 276 197 206 209 241 262 277 291 306 322 328 330 328 326 327 328 330 328 323 317 304 303 297 285 275 268 269 272 279 264 262 271 258 257 256 250 254
253 237 246 247 263 272 287 291 304 298 301 304 301 290 319 316 306 302 305 312 322 325 326 324 324 324 325 328 327 327 325 312 310 305 294 290 282 273 272 272 265 265 267 248 256 259 254 266 256
255 260 257 268 285 286 292 299 304 302 301 305 311 317 319 316 313 311 311 314 316 320 318 318 318 320 324 325 325 326 324 320 315 312 308 293 283 279 276 267 264 264 251 239 243 253 250 258 260
266 279 289 293 300 303 300 297 304 296 306 310 305 311 313 313 313 312 307 307 311 312 313 313 316 319 321 322 323 325 323 320 317 315 306 297 289 282 276 266 260 265 242 247 240 242 251 261 258
279 285 292 298 303 308 306 309 308 300 290 297 301 304 308 316 313 307 303 304 306 309 311 313 315 317 319 321 323 324 325 323 318 314 315 311 303 297 292 280 282 259 231 229 230 240 251 259 260